Regional Weather Roundup
Issued by NWS

Home | Current Version | Previous Version | Graphics & Text | Print | Product List | Glossary Off
Versions: 1 2 3 4 5 6 7 8 9 10 11 12 13 14 15 16 17 18 19 20 21 22 23 24 25 26 27 28 29 30 31 32 33 34 35 36 37 38 39 40 41 42 43 44 45 46 47 48 49 50

000
ASUS45 KBOU 031307
RWRCO

WEATHER ROUNDUP FOR COLORADO
NATIONAL WEATHER SERVICE DENVER/BOULDER CO
700 AM MDT SUN MAY 03 2015

NOTE: "FAIR" INDICATES FEW OR NO CLOUDS BELOW 12000 FEET WITH NO
SIGNIFICANT WEATHER AND/OR OBSTRUCTIONS TO VISIBILITY.

COZ001>005-013-030-031-031400-
...NORTHWEST COLORADO...

CITY           SKY/WX    TMP DP  RH WIND       PRES   REMARKS
CRAIG          MOCLDY    41  37  86 N7        30.02R
HAYDEN         PTCLDY    43  34  70 E9        30.04R
MEEKER         PTCLDY    43  36  76 N5        30.03R
MOUNT WERNER   NOT AVBL
STEAMBOAT SPGS PTCLDY    36  32  85 CALM      30.07R
WALDEN         CLEAR     34  30  86 SE6       30.10R WCI  29
$$

COZ006>008-011-031400-
...WEST CENTRAL VALLEYS...

CITY           SKY/WX    TMP DP  RH WIND       PRES   REMARKS
GRAND JUNCTION PTCLDY    54  40  59 W6        29.95R
MONTROSE       PTCLDY    54  33  45 SE10      30.02R
EAGLE          PTCLDY    39  36  87 CALM      30.12R
RIFLE          CLEAR     45  37  73 SW3       30.02R
DELTA          PTCLDY    55  32  41 E6        30.00R
NUCLA          PTCLDY    52  32  46 E10       30.07R
$$

COZ017>023-064>068-031400-
...SOUTHWEST COLORADO...

CITY           SKY/WX    TMP DP  RH WIND       PRES   REMARKS
DURANGO        CLOUDY    44  34  67 CALM      30.10R
CORTEZ         CLOUDY    47  37  68 CALM      30.06R
PAGOSA SPRINGS CLOUDY    42  33  70 NE3       30.16R
TELLURIDE      CLOUDY    44  29  54 CALM      30.21R
WOLF CREEK PAS NOT AVBL
$$

COZ009-010-012-014-032>034-037-058>063-031400-
...CENTRAL COLORADO...

CITY           SKY/WX    TMP DP  RH WIND       PRES   REMARKS
ASPEN          PTCLDY    36  30  79 N3        30.11R
BUENA VISTA    NOT AVBL
COPPER MTN     PTCLDY    37  23  56 W14G21    30.28S
BERTHOUD PASS  FAIR      30  23  74 W22G30    30.30R WCI  17
COTTONWOOD PAS PTCLDY    43  28  56 W5        30.21R
GUNNISON       MOCLDY    37  28  70 NE3       30.19R
KREMMLING      PTCLDY    34  32  93 CALM      30.14R
LEADVILLE      PTCLDY    29  26  89 CALM      30.20R
MONARCH PASS   PTCLDY    32  27  80 W18       30.40R WCI  20
SALIDA         PTCLDY    44  36  74 NW3       30.21R
SUNLIGHT       PTCLDY    37  28  70 CALM      30.26S
WILKERSON PASS PTSUNNY   36  25  64 MISG      30.28R
$$

COZ069>075-031400-
...SAN LUIS VALLEY/SANGRE DE CRISTO MOUNTAINS...

CITY           SKY/WX    TMP DP  RH WIND       PRES   REMARKS
ALAMOSA        CLOUDY    34  31  88 SW3       30.14R
LA VETA PASS   MOCLDY    39  30  70 MISG      30.22R
SAGUACHE       PTCLDY    37  32  81 NW13      30.16S
$$

COZ035-036-038>040-031400-
...NORTHERN COLORADO FRONT RANGE...

CITY           SKY/WX    TMP DP  RH WIND       PRES   REMARKS
DENVER INTL AP PTSUNNY   53  38  56 SW13      29.93R
DMNS CITY PARK   N/A     55  36  48 SW6       29.94R
AURORA         PTSUNNY   54  38  54 S8        29.96R
FRONT RANGE AP PTSUNNY   57  39  51 SW13      29.95
ERIE MUNI ARPT PTSUNNY   52  43  70 SE3       29.93R
BOULDER MUN AP PTSUNNY   57  37  47 E6        29.93R
CENTENNIAL     PTSUNNY   56  36  47 SW15      29.96R
BROOMFIELD     MOSUNNY   54  36  50 CALM      29.96R
FORT COLLINS   MOSUNNY   46  39  76 CALM      29.93R
LONGMONT       MOSUNNY   53  42  67 W5        29.94R
$$

COZ041-046-047-076>085-087-088-031400-
...PIKES PEAK/PALMER DIVIDE AND SOUTHERN FOOTHILLS...

CITY           SKY/WX    TMP DP  RH WIND       PRES   REMARKS
COLO. SPRINGS  PTSUNNY   53  36  52 N5        30.00R
A. F. ACADEMY  PTSUNNY   57  33  40 W15       30.00R
ELLICOTT       MOSUNNY  N/A N/A N/A N5        29.98R
FALCON         MOSUNNY   56  32  40 W13       30.03R
FORT CARSON    MOSUNNY   51  38  60 NW8       29.96R
LIMON          SUNNY     52  40  63 W14       29.94R
MONUMENT HILL  PTSUNNY   52  36  54 W7        30.02R
TRINIDAD       MOSUNNY   49  35  58 W12       30.00R
$$

COZ042>045-048>051-090-091-031400-
...NORTHEAST COLORADO...

CITY           SKY/WX    TMP DP  RH WIND       PRES   REMARKS
GREELEY ARPT   SUNNY     45  39  81 CALM      29.93R
AKRON          SUNNY     54  43  66 W12       29.89R
BURLINGTON     SUNNY     54  43  66 W10       29.88R
WRAY           SUNNY     52  46  79 SW3       29.85R
STERLING       SUNNY     46  45  93 S5        29.86R
HOLYOKE        NOT AVBL
FORT MORGAN    SUNNY     51 -21   5 NW7       29.91R
$$

COZ086-089-092>099-031400-
...SOUTHEAST COLORADO...

CITY           SKY/WX    TMP DP  RH WIND       PRES   REMARKS
PUEBLO         MOSUNNY   52  41  66 W6        29.93R
LA JUNTA       MOSUNNY   51  43  74 MISG      29.91R
LAMAR          MOSUNNY   51  47  86 SW6       29.87R
SPRINGFIELD      N/A     53  41  63 CALM      29.90R
$$


USA.gov is the U.S. government's official web portal to all federal, state and local government web resources and services.